Skip Page Navigation
NASA JPL Caltech
NASA Logo - Jet Propulsion Laboratory + View the NASA Portal
+ Center for Near-Earth Object Studies
JPL Home Earth Solar System Stars & Galaxies Technology
JPL Solar System Dynamics
BODIES ORBITS EPHEMERIDES TOOLS PHYSICAL DATA DISCOVERY FAQ SITE MAP
IMPORTANT: The SSD Announcement email list is now available. Major changes are coming in the near future, including possible hostname and/or URL changes. To be notified of such changes, subscribe to this email list.

Please visit this page for more details.


JPL Small-Body Database Browser
Search: [ help ]  
379600 (2011 CB42)
Classification: Main-belt Asteroid          SPK-ID: 2379600
Ephemeris | Orbit Diagram | Orbital Elements | Mission Design | Physical Parameters | Discovery Circumstances | Close-Approach Data ]

[ show orbit diagram ]
Orbital Elements at Epoch 2458600.5 (2019-Apr-27.0) TDB
Reference: JPL 16 (heliocentric ecliptic J2000)
 Element Value Uncertainty (1-sigma)   Units 
e .2189662341559612 6.4741e-08  
a 2.418098383255185 2.8781e-08 au
q 1.888616486455179 1.5788e-07 au
i 10.37185792862674 9.0758e-06 deg
node 32.59951318088121 2.6827e-05 deg
peri 122.4736060789461 3.3243e-05 deg
M 61.67104930008995 2.0369e-05 deg
tp 2458365.218265084968
(2018-Sep-03.71826509)
7.567e-05 TDB
period 1373.439004698239
3.76
2.4521e-05
6.713e-08
d
yr
n .2621157537892236 4.6797e-09 deg/d
Q 2.947580280055191 3.5084e-08 au
  Orbit Determination Parameters
   # obs. used (total)      233  
   data-arc span      6421 days (17.58 yr)  
   first obs. used      2000-04-29  
   last obs. used      2017-11-27  
   planetary ephem.      DE431  
   SB-pert. ephem.      SB431-N16  
   condition code      0  
   norm. resid. RMS      .54175  
   source      ORB  
   producer      Otto Matic  
   solution date      2017-Dec-07 18:37:01  

Additional Information
 Earth MOID = .920013 au 
 Jupiter MOID = 2.08841 au 
 T_jup = 3.460 
[ show covariance matrix ]

Ephemeris | Orbit Diagram | Orbital Elements | Mission Design | Physical Parameters | Discovery Circumstances | Close-Approach Data ]

Physical Parameter Table
Parameter Symbol Value Units Sigma Reference Notes
absolute magnitude H 16.6   n/a MPO427886  

379600 (2011 CB42)          Discovered 2000-Apr-29 by LINEAR at Socorro
Reference: Last Updated: 2013-11-20

[ show close-approach data ]
Alternate Designations
 2011 CB42 = 2000 HH82 = 2002 VP121 
Ephemeris | Orbit Diagram | Orbital Elements | Mission Design | Physical Parameters | Discovery Circumstances | Close-Approach Data ]
ABOUT SSD CREDITS/AWARDS PRIVACY/COPYRIGHT GLOSSARY LINKS
FirstGov 2019-Dec-12 09:15 UT
(server date/time)  
NASA Home Page
Site Manager:   Ryan S. Park
Webmaster  Alan B. Chamberlin